Content
SEND FEEDBACK

Daily
Averages
Monthly
Summary
Canada

ANCIENNE LORETTE, QUEBEC


Home > North America > Canada > Quebec
Elevation: 230 feet     Latitude: 46 48N     Longitude: 071 22W

WEATHER
 
SELECT A DAY
Number of Records: 192,044;   Date Range: 6/30/96 - 7/27/14
 
SHARE

PRINT THIS DATA

[ ← Previous Day ]
WEATHER ALMANAC - APRIL 10, 2014
[ Next Day → ]
[ °C ]   °F
Weather ElementAverageHighLow
Temperature35.4 °F52 °F (5:00 pm)15 °F (5:00 am)
Dewpoint20.1 °F29 °F (8:00 pm)8.6 °F (2:00 am)
Humidity52.3 %78 % (5:00 am)23 % (5:00 pm)
Barometer29.80 in29.94 in (7:00 am)29.62 in (8:00 pm)
Wind Speed6.5 mph18.4 mph (4:00 pm)
Wind Gust27.6 mph (4:00 pm)
Weather ElementAverage
Visibility24.1 mi
Wind DirectionSSW (198.1 °)

Weather ElementTotal
Precipitation---
Heating Degree Days31.5 (Base 65)
Averaged from 31 records on April 10, 2014
WEATHER CONDITIONS BREAKOUT
WIND DIRECTION BREAKOUT
WEATHER BY HOUR - APRIL 10, 2014
[ °C ]   °F
Local TimeTemperatureDewpointHumidityBarometerVisibilityWind DirectionWind SpeedGust SpeedPrecipitationEventsConditions
1:00 AM21.2 °F10.4 °F63 %29.89 in15.0 miWSW (240°)5.8 mphClear
2:00 AM18.0 °F10.0 °F61 %29.90 inWNW (290°)3.5 mph
2:00 AM21.2 °F8.6 °F58 %29.90 in15.0 miWest (270°)8.1 mphClear
3:00 AM21.2 °F10.4 °F63 %29.91 in15.0 miNNE (30°)3.5 mphClear
4:00 AM19.4 °F10.4 °F68 %29.91 in15.0 miCalmClear
5:00 AM15.0 °F11.0 °F78 %29.93 inNNW (340°)1.2 mph
5:00 AM17.6 °F10.4 °F73 %29.93 in15.0 miNorth (10°)3.5 mphClear
6:00 AM17.6 °F8.6 °F68 %29.93 in30.0 miNNE (20°)5.8 mphPartly Cloudy
7:00 AM19.4 °F12.2 °F74 %29.94 in30.0 miNorth (360°)2.3 mphPartly Cloudy
8:00 AM26.0 °F13.0 °F45 %29.94 inNE (50°)2.3 mph
8:00 AM24.8 °F14.0 °F64 %29.94 in30.0 miNNE (30°)4.6 mphMostly Cloudy
9:00 AM28.4 °F14.0 °F55 %29.94 in30.0 miCalmPartly Cloudy
10:00 AM33.8 °F19.4 °F56 %29.92 in30.0 miWest (270°)3.5 mphPartly Cloudy
11:00 AM37.0 °F22.0 °F41 %29.88 inWSW (250°)5.8 mph
11:00 AM35.6 °F23.0 °F60 %29.90 in30.0 miWest (270°)4.6 mphMostly Cloudy
12:00 PM39.2 °F23.0 °F52 %29.87 in30.0 miWSW (250°)4.6 mphOvercast
1:00 PM41.0 °F26.6 °F57 %29.83 in30.0 miSW (220°)4.6 mphMostly Cloudy
2:00 PM47.0 °F24.0 °F28 %29.77 inSW (220°)5.8 mph
2:00 PM46.4 °F24.8 °F43 %29.79 in30.0 miSSW (200°)13.8 mphMostly Cloudy
3:00 PM48.2 °F26.6 °F43 %29.74 in30.0 miSSW (200°)16.1 mph24.2 mphMostly Cloudy
4:00 PM50.0 °F26.6 °F40 %29.69 in30.0 miSSW (210°)18.4 mph27.6 mphMostly Cloudy
5:00 PM52.0 °F25.0 °F23 %29.65 inSW (220°)9.2 mph
5:00 PM50.0 °F26.6 °F40 %29.66 in30.0 miSSW (210°)15.0 mphMostly Cloudy
6:00 PM50.0 °F26.6 °F40 %29.65 in30.0 miSW (220°)10.4 mph18.4 mphMostly Cloudy
7:00 PM46.4 °F26.6 °F46 %29.64 in30.0 miSSW (200°)5.8 mphMostly Cloudy
8:00 PM42.0 °F29.0 °F48 %29.62 inWNW (300°)1.2 mph
8:00 PM46.4 °F26.6 °F46 %29.63 in15.0 miSW (230°)3.5 mphMostly Cloudy
9:00 PM44.6 °F26.6 °F49 %29.63 in15.0 miWest (280°)3.5 mphOvercast
10:00 PM44.6 °F28.4 °F53 %29.63 in15.0 miWSW (250°)9.2 mphOvercast
11:00 PM48.0 °F29.0 °F36 %29.65 inWSW (250°)10.4 mph
11:00 PM46.4 °F28.4 °F50 %29.66 in15.0 miWSW (250°)16.1 mphOvercast
Hourly data recorded from CYQB, located miles away from Ancienne Lorette, Quebec







STORIES FROM OUR PARTNERS